Theta_e
312 313 315 315 313 311 310 312 312 311 311 310 311 311 311 312 311 312 312 312 311 309 309 309 309 308 309 308 307 306 305 304 303 302 301 300 300 299 298 298 298 297 297 297 297 297 296 296 296 296 296 296 296 296 296 296 296 296 296 297 297 297 297 298 298 298 297 297 299 299 298 300 301 304 306 306 306 308 308 307 310 316 319 319 319 320
313 314 316 314 311 309 310 311 310 310 310 310 311 311 312 312 312 312 312 311 310 309 308 309 308 308 308 308 307 306 304 303 302 301 301 300 299 299 298 298 297 297 297 297 297 296 296 295 295 295 295 296 295 296 295 295 295 295 296 296 296 297 297 297 298 298 298 297 297 298 298 298 298 299 303 304 306 309 309 307 307 310 314 317 319 319
314 315 313 311 309 309 310 310 309 310 310 311 312 312 312 312 312 312 311 311 309 308 308 308 308 308 308 308 307 306 304 302 302 301 300 299 299 298 298 298 297 297 297 296 296 296 295 295 295 295 295 295 295 295 295 295 295 295 295 295 295 296 296 297 297 298 299 298 297 297 298 299 298 297 298 301 305 308 308 307 306 307 309 313 316 317
313 313 311 309 310 310 310 310 310 310 311 312 313 312 312 312 312 311 311 310 308 308 308 308 308 308 308 307 306 305 304 302 301 300 299 299 298 298 298 297 297 297 296 296 296 295 295 295 294 294 294 294 294 295 295 295 295 295 295 295 295 295 295 296 296 297 298 299 299 298 298 299 298 296 296 299 302 305 306 306 305 306 307 309 312 315
311 312 310 309 310 310 311 311 312 312 311 311 313 313 312 311 310 310 309 308 308 309 309 307 307 307 308 307 305 305 304 302 300 300 299 299 298 298 297 297 297 296 296 296 295 295 295 294 294 294 294 294 294 294 294 294 294 294 295 295 295 295 295 295 296 296 297 297 299 299 299 298 297 295 295 297 298 300 303 305 306 305 305 307 308 312
310 310 309 311 311 311 312 311 312 312 310 309 312 311 310 309 309 308 308 308 308 308 308 306 305 307 309 308 306 305 304 302 300 300 299 298 298 297 297 297 296 296 296 296 295 294 294 294 294 294 294 294 294 294 294 294 294 294 294 295 295 295 295 295 295 296 296 296 297 298 298 299 298 296 295 295 296 296 298 302 305 305 305 306 307 309
309 308 309 311 312 312 312 311 312 311 309 309 310 308 308 308 308 308 307 308 307 307 307 306 305 306 307 308 307 305 303 301 300 300 299 298 298 297 297 296 296 296 295 295 295 294 294 294 294 294 293 294 294 294 294 294 294 294 294 294 295 295 295 295 295 295 295 296 296 296 297 298 299 298 296 294 294 295 295 297 303 306 305 305 307 307
309 308 310 311 311 311 311 311 312 310 309 309 308 306 306 306 306 307 307 308 307 307 306 306 306 306 306 307 308 305 302 300 299 299 299 298 298 297 296 296 296 295 295 295 294 294 293 293 293 293 293 293 293 294 294 294 294 294 294 294 294 294 294 294 294 295 295 295 295 296 296 297 298 299 297 295 294 295 295 295 298 304 305 304 305 306
309 309 310 310 310 310 310 310 310 310 309 308 305 304 305 305 306 307 307 307 307 306 305 305 306 306 306 308 308 305 303 301 300 299 298 298 297 296 296 296 295 295 294 295 294 293 293 293 293 293 293 293 293 294 293 293 294 294 294 293 293 293 294 294 294 294 294 294 295 295 295 296 298 299 298 296 294 294 295 295 296 299 304 304 303 304
308 308 308 308 309 309 308 307 307 308 308 306 305 306 307 307 308 308 307 306 305 304 304 305 306 306 306 307 308 306 304 302 300 299 298 298 297 296 296 295 295 294 294 294 294 293 293 293 293 293 293 293 293 294 293 293 293 293 293 293 293 293 293 293 294 294 294 294 294 295 295 296 297 298 299 298 295 294 294 295 295 296 300 303 302 302
307 306 306 307 308 308 307 305 306 306 305 305 306 307 307 307 307 307 305 304 304 304 306 306 306 305 304 305 306 304 302 300 299 298 298 297 296 296 295 295 294 294 294 294 293 293 293 293 293 293 293 293 293 293 293 293 293 293 293 292 292 292 292 292 293 293 293 294 294 294 295 295 296 297 299 299 297 294 294 295 295 296 297 300 302 301
308 307 308 307 306 307 307 306 307 306 305 306 306 306 306 306 306 305 305 304 303 305 306 305 304 303 302 303 302 301 299 298 297 297 297 297 296 296 295 295 294 294 294 293 293 293 293 293 293 293 293 293 293 293 293 293 292 292 292 292 292 292 292 292 292 292 293 293 294 294 294 295 296 296 298 299 298 295 294 294 295 295 296 297 301 302
309 308 308 307 306 307 308 308 308 308 306 306 306 305 305 305 305 305 305 305 305 306 305 303 301 300 300 302 301 299 298 298 297 297 297 296 296 295 295 294 294 294 293 293 293 293 292 293 293 293 293 293 292 292 292 292 292 292 291 291 291 291 291 291 291 292 292 293 294 294 294 295 295 296 297 299 299 296 294 294 294 295 296 295 297 301
311 309 307 306 306 306 308 308 308 308 306 305 305 304 304 304 304 305 305 304 305 305 303 301 300 299 300 302 301 299 298 297 297 297 296 296 295 295 294 294 294 293 293 293 293 293 292 292 293 293 292 292 292 292 292 292 291 291 291 290 290 290 290 290 291 291 292 292 293 294 294 295 295 296 297 299 299 297 294 293 294 294 295 295 295 298
311 311 308 307 306 305 307 306 305 305 304 304 304 303 303 303 303 303 303 303 303 303 302 300 299 299 301 301 300 298 297 297 297 296 296 295 295 295 294 294 294 293 293 293 293 293 293 292 292 292 292 292 292 292 291 291 291 291 290 289 289 289 289 289 290 290 291 292 292 292 293 294 295 296 297 298 299 297 295 293 293 294 294 295 294 295
309 311 308 304 303 303 305 304 302 303 304 303 303 302 302 303 303 302 302 303 302 300 300 300 299 301 301 300 299 298 297 297 297 296 296 295 295 294 294 294 293 293 293 293 292 292 292 292 292 292 292 292 291 291 290 290 290 289 288 287 287 287 286 286 286 287 289 290 290 290 291 291 294 296 296 298 298 298 296 294 293 293 294 294 295 294
309 310 306 302 302 301 301 302 302 304 304 302 301 302 301 301 301 300 300 301 300 299 300 300 300 301 301 300 299 298 297 297 297 296 296 295 295 294 294 293 293 293 293 292 292 292 292 292 292 292 292 292 291 291 289 289 289 288 286 285 285 285 284 284 284 284 286 287 288 288 289 290 293 296 296 297 298 298 297 295 293 293 293 294 294 294
308 309 306 304 303 301 299 300 301 301 302 302 301 301 299 298 298 297 296 297 298 299 301 301 300 300 300 299 299 298 298 297 296 296 295 295 295 294 294 293 293 293 292 292 292 292 292 292 291 291 291 291 291 290 288 288 287 286 285 284 284 284 283 283 283 283 284 285 285 286 288 289 292 294 295 296 297 298 298 297 294 293 293 294 294 294
306 306 306 304 303 301 299 300 301 300 300 300 300 299 298 297 297 297 296 297 298 299 300 301 299 299 299 299 299 298 298 296 296 295 295 295 294 294 293 293 292 292 292 292 292 292 291 291 291 291 291 290 290 288 287 287 286 285 284 283 283 283 283 282 282 282 282 282 283 284 286 288 289 291 292 294 296 297 297 297 296 294 293 293 294 294
304 304 305 303 301 300 299 300 301 300 299 298 298 297 298 297 296 297 297 297 298 298 299 300 299 298 299 299 298 298 297 296 295 295 294 294 294 294 293 293 292 292 292 292 292 291 291 291 291 291 290 289 288 287 286 285 285 284 283 282 282 282 282 281 281 281 281 280 280 282 284 286 287 287 288 291 294 296 297 297 297 296 294 293 294 294
303 303 304 302 299 299 300 300 301 301 300 298 297 297 297 297 296 297 296 296 296 297 297 297 297 298 299 298 297 297 296 295 295 294 294 294 294 293 293 292 292 292 292 292 292 291 291 291 291 290 289 288 287 286 286 285 284 283 282 281 281 280 280 280 280 279 279 279 279 280 281 283 285 286 287 289 292 294 295 296 297 297 296 294 294 294
302 302 304 302 299 300 301 300 299 300 300 299 298 297 297 297 297 297 297 296 295 295 296 296 296 297 298 297 297 297 296 295 295 295 294 294 294 293 293 292 292 292 292 291 291 291 291 291 290 289 288 287 286 286 285 284 283 282 281 280 279 279 279 278 279 278 278 278 279 279 279 280 282 284 286 288 290 292 294 296 296 296 297 296 294 294
300 300 302 302 301 300 299 297 296 297 298 298 298 297 297 297 297 296 297 297 296 295 296 295 295 296 297 297 297 296 296 296 295 295 294 294 293 293 292 292 292 292 291 291 290 291 291 290 289 288 287 287 286 285 284 283 282 281 280 279 278 278 277 277 277 277 277 277 278 278 278 279 281 282 284 286 289 290 291 294 295 296 296 297 296 295
299 299 300 301 301 298 295 295 296 297 297 296 296 296 297 297 297 296 296 296 296 296 295 295 295 297 297 297 297 297 297 296 295 294 294 293 293 293 292 292 292 291 291 291 291 290 290 289 288 288 287 286 285 284 283 283 282 280 279 278 277 276 276 276 276 276 276 276 277 277 278 278 279 280 282 284 287 288 290 292 294 295 295 296 296 296
300 300 299 299 300 299 297 295 295 296 296 295 295 296 297 297 297 296 296 295 295 295 295 295 295 296 297 297 297 297 297 296 295 294 293 293 293 292 292 292 291 291 291 291 290 290 289 288 288 287 286 285 284 283 283 282 281 279 278 277 276 276 275 275 275 275 275 276 276 277 277 278 279 279 280 282 284 286 288 290 292 294 294 295 296 296
300 300 299 299 301 302 301 298 297 297 296 295 295 296 297 297 296 296 295 295 295 295 295 295 295 296 297 297 297 297 297 296 295 294 293 293 293 292 292 291 291 291 290 290 290 290 289 288 287 286 285 285 283 282 282 281 280 279 278 276 276 275 275 274 274 274 274 275 276 276 277 278 278 279 279 280 282 284 286 288 290 293 294 295 296 296
298 298 298 299 301 302 302 299 297 296 295 295 296 296 296 297 297 296 295 295 295 295 295 295 296 296 297 297 296 296 296 295 294 294 293 293 292 292 291 291 291 290 290 290 290 289 288 287 286 285 284 284 283 282 282 281 279 278 277 276 275 274 274 274 274 274 274 274 275 275 276 277 278 278 279 279 280 281 283 285 288 290 292 294 295 295
296 296 297 298 299 299 299 297 296 296 295 295 295 295 295 296 297 297 296 295 294 294 294 295 295 296 296 296 296 296 295 294 294 294 293 292 292 291 291 291 290 290 290 290 289 288 287 286 285 284 283 283 283 283 283 281 279 277 276 276 275 274 274 274 273 273 273 274 274 275 275 276 277 278 278 279 279 280 280 282 285 288 290 291 293 294
296 297 297 298 297 297 297 297 296 296 295 295 295 295 295 295 296 297 296 295 294 294 294 294 294 295 295 295 296 295 294 294 293 293 293 292 292 291 291 291 290 290 290 289 288 287 286 285 285 284 283 283 283 282 281 280 278 277 276 275 274 274 274 273 273 273 273 273 273 274 275 275 276 276 277 278 279 279 280 280 282 285 287 288 290 291
295 296 296 296 296 296 296 296 296 295 295 295 295 295 295 294 295 296 295 295 294 294 294 293 293 294 294 295 295 295 294 294 293 293 292 292 292 291 291 290 290 290 289 288 287 286 286 285 284 283 283 282 281 280 279 279 278 276 275 275 274 274 274 273 273 273 273 273 273 273 274 274 275 275 276 277 278 279 279 279 280 282 284 286 287 289
295 296 296 295 296 297 296 296 296 295 295 295 295 296 295 294 294 294 294 295 295 294 294 294 294 294 295 295 295 294 294 293 293 293 292 292 292 291 290 290 290 289 289 287 286 285 285 284 283 283 282 281 280 279 279 278 278 276 275 274 274 274 273 273 273 273 273 273 273 273 273 273 274 274 275 276 277 278 279 279 279 280 282 283 285 288
295 295 296 296 297 297 296 296 296 295 295 295 295 295 295 294 294 294 294 295 295 295 294 294 294 294 295 295 294 294 294 293 293 293 292 291 291 290 290 290 289 289 288 286 285 285 284 283 282 282 281 280 279 278 277 277 276 275 275 274 274 273 273 273 273 273 272 272 273 273 273 273 273 274 275 275 276 277 278 279 279 279 280 281 283 286
295 295 295 296 296 296 296 295 294 294 294 294 295 295 295 294 294 294 294 294 295 294 294 294 294 294 294 294 293 293 293 293 293 292 292 291 291 290 290 289 289 287 286 285 285 284 283 282 281 281 280 279 278 277 277 276 275 275 274 273 273 273 273 272 272 272 272 272 272 272 272 273 273 273 274 275 276 277 278 279 279 279 279 280 282 284
296 295 295 295 296 295 294 293 293 294 295 296 296 295 295 294 294 294 294 294 294 294 295 294 294 294 294 293 293 292 293 292 292 292 291 290 290 290 289 289 288 286 285 284 283 283 282 281 280 279 278 278 277 277 276 276 275 274 273 273 273 272 272 272 272 272 272 272 272 272 272 272 273 273 274 274 275 277 278 279 279 279 280 280 281 283
296 296 295 295 296 294 293 292 294 295 295 294 295 295 295 294 294 294 294 294 294 294 294 294 293 293 293 293 293 293 292 292 292 291 290 290 290 289 288 288 286 285 284 283 282 281 281 280 279 278 277 277 276 276 275 275 274 274 273 272 272 272 272 271 271 271 271 271 271 271 271 272 272 272 273 273 273 275 278 279 280 280 280 280 280 282
296 296 295 295 295 294 293 294 295 296 294 292 293 293 293 293 293 292 292 293 293 293 293 293 293 293 293 293 293 292 292 291 290 290 290 290 289 288 287 286 285 284 283 282 281 280 279 278 278 277 276 276 276 275 274 274 274 273 272 271 271 271 271 271 271 270 270 270 270 270 271 271 271 271 272 272 272 274 276 278 280 280 280 280 281 283
295 295 295 294 294 294 293 294 296 296 295 294 294 293 293 293 293 293 293 293 293 293 293 292 292 292 293 293 292 292 291 290 290 290 291 290 288 287 286 285 284 283 281 281 280 279 278 277 277 276 276 276 276 275 274 274 273 272 271 271 271 270 270 270 270 270 269 269 269 269 270 270 270 270 271 271 272 273 275 277 279 279 280 280 282 284
295 295 295 294 294 294 293 294 295 295 296 296 295 295 295 294 293 293 292 292 293 293 293 293 292 292 292 292 292 291 290 290 290 291 291 289 287 286 285 284 283 281 280 279 278 278 277 277 277 277 277 276 276 275 273 273 273 273 271 270 270 270 270 269 269 269 269 268 269 269 269 269 269 270 270 270 271 272 274 275 277 279 280 281 282 285
294 294 294 294 294 295 294 294 295 295 296 295 294 294 293 293 293 292 292 292 293 293 293 293 292 292 292 292 292 291 290 289 290 291 290 288 286 285 283 283 282 281 280 279 277 276 276 277 278 278 277 277 276 274 273 274 274 273 271 269 269 269 269 268 268 267 267 268 268 268 268 268 269 270 270 271 272 273 274 275 277 279 280 281 283 286
293 293 293 293 293 294 294 294 295 295 295 294 293 292 292 292 292 291 291 292 293 293 293 292 292 292 292 292 291 290 289 290 290 290 289 287 285 284 283 282 280 280 280 279 278 277 277 277 278 278 277 277 275 274 274 275 275 274 271 269 268 269 268 267 267 266 267 268 268 268 269 270 270 271 272 273 274 275 275 276 277 279 281 282 284 287
292 292 293 292 292 293 294 294 294 294 295 294 292 292 292 292 291 291 292 293 292 292 292 292 292 292 292 291 290 290 290 290 290 288 287 286 284 284 283 282 281 280 279 278 277 276 276 277 277 277 277 276 274 273 273 273 275 276 273 269 268 268 267 266 266 267 267 268 269 270 271 273 273 273 275 276 277 277 277 277 278 280 282 284 286 289
292 292 292 292 292 292 293 294 294 294 295 294 292 292 291 291 291 292 293 293 292 292 293 292 292 292 291 290 290 290 289 289 288 287 286 284 283 283 283 282 281 281 279 277 276 274 274 275 276 276 276 276 274 273 272 272 275 276 272 268 268 267 266 266 267 268 269 270 272 273 275 275 276 276 278 280 279 279 279 279 280 282 284 285 287 290
292 292 291 292 293 292 292 293 293 294 295 294 292 291 291 292 292 293 293 293 292 292 292 292 291 291 290 290 289 289 288 287 286 285 284 283 282 282 282 281 280 280 279 278 276 275 274 275 275 275 276 276 275 273 273 272 273 274 272 269 268 266 265 266 268 270 272 274 275 277 277 278 279 281 282 283 282 281 281 282 283 285 286 287 288 289
293 293 292 293 293 292 292 293 294 294 294 294 293 292 292 292 293 293 293 293 293 292 291 291 291 290 290 289 289 288 288 287 285 284 283 282 282 281 281 280 279 279 278 277 275 274 274 274 275 275 275 275 275 274 273 272 272 275 275 271 267 266 267 268 270 273 275 277 278 279 280 281 282 283 284 285 285 284 283 284 285 286 287 288 288 289
294 294 294 294 294 293 293 294 294 294 294 293 293 293 293 293 293 292 292 293 293 292 291 291 290 290 289 289 288 288 287 286 284 283 282 281 281 281 280 279 279 278 277 276 275 275 274 273 273 274 275 275 275 274 274 273 274 276 277 272 269 268 268 269 272 275 277 278 279 280 282 284 284 284 285 286 287 287 287 287 287 287 288 289 289 290
294 294 294 294 294 294 294 294 294 294 293 293 293 293 293 293 293 293 292 292 292 292 291 291 290 289 289 289 288 288 287 285 284 283 282 281 281 281 280 279 279 277 276 276 275 274 274 273 273 273 274 275 275 275 275 275 275 276 276 274 272 271 270 270 272 275 277 279 280 280 281 283 284 285 286 287 287 288 289 289 289 290 290 291 291 292
294 293 293 294 294 294 295 294 294 293 294 293 293 292 292 292 292 292 292 291 291 291 291 290 290 289 289 289 288 287 286 285 283 283 282 281 281 280 280 279 278 277 276 276 275 274 274 273 272 272 273 274 275 275 275 276 276 276 276 275 274 273 272 271 272 274 276 278 279 279 281 282 283 284 286 287 286 286 288 289 290 291 292 293 293 294
294 294 293 293 294 294 294 295 294 294 294 293 293 293 292 292 291 291 291 291 291 291 291 290 290 289 289 288 288 287 286 285 283 283 282 281 280 280 279 279 278 277 276 275 274 274 273 272 272 272 272 273 274 275 275 276 276 276 277 276 274 274 274 273 273 275 276 277 278 278 279 280 281 282 285 286 287 286 287 288 290 291 292 293 294 294
294 294 293 293 293 294 294 294 294 294 293 293 293 293 292 292 291 291 291 291 291 291 290 290 289 289 289 288 287 287 286 284 283 283 282 281 280 279 279 278 277 276 276 275 274 273 272 272 272 272 272 273 273 274 275 276 277 277 277 276 275 275 274 273 274 276 275 276 277 276 276 278 279 280 282 284 287 288 288 288 289 291 292 294 295 295
294 294 294 293 293 293 293 294 294 294 293 293 293 293 293 292 292 291 291 291 291 290 290 290 289 289 288 288 287 286 285 284 283 283 282 280 279 279 279 278 277 276 276 275 274 273 272 271 271 272 272 272 273 274 275 276 277 277 277 276 275 275 272 272 274 276 275 275 275 275 274 275 277 279 280 282 285 287 290 291 291 291 293 294 295 296
294 294 294 294 293 294 294 294 294 294 294 294 294 293 293 293 292 291 291 291 291 291 290 289 289 289 288 287 287 286 285 284 283 282 281 280 279 278 278 277 276 276 275 275 274 273 272 271 271 271 272 272 273 274 275 276 277 277 277 276 276 274 271 271 273 275 274 273 273 273 273 273 274 276 278 280 282 285 287 290 292 292 293 295 296 296
Wind_Speed
5 6 4 3 3 5 5 3 3 4 5 6 7 7 8 9 7 5 4 5 4 5 6 8 10 12 12 3 13 12 13 12 12 10 8 7 7 9 10 11 11 12 13 15 18 20 21 23 25 26 26 28 29 29 30 30 29 30 31 31 31 33 34 34 35 37 38 35 32 35 37 37 38 37 35 33 31 31 30 31 33 33 36 40 42 41
4 6 2 3 3 5 4 3 4 5 6 7 7 7 7 7 7 6 3 4 2 4 6 10 11 14 12 6 14 12 11 10 10 9 8 8 8 8 9 9 11 13 14 17 19 21 24 27 29 29 29 30 31 31 31 30 30 31 31 31 31 32 32 33 34 35 38 38 34 35 37 38 40 40 38 36 32 30 30 31 32 32 33 36 41 42
5 5 2 3 3 2 3 3 4 6 8 7 6 6 6 5 6 4 3 4 3 6 7 10 10 14 7 10 13 10 11 10 10 9 8 8 8 7 8 10 13 16 18 19 21 23 27 30 31 30 30 31 31 32 32 31 32 32 32 32 33 34 33 33 33 33 36 40 40 39 35 35 39 41 39 38 34 29 30 31 31 31 31 33 38 42
7 3 4 2 0 2 5 3 5 7 7 6 5 6 6 5 6 2 2 4 9 7 6 9 10 10 2 11 9 9 12 11 11 9 8 7 7 7 8 11 14 17 18 19 22 26 29 30 30 30 30 32 32 32 32 33 34 33 34 35 35 36 35 34 35 35 35 36 40 42 37 31 36 42 40 37 35 31 30 31 29 30 32 32 34 37
10 4 4 1 2 3 6 6 6 6 6 7 5 5 6 5 5 6 7 11 11 3 3 7 10 7 6 12 8 9 11 11 10 8 7 5 5 7 8 12 14 16 17 19 24 30 32 32 33 32 32 33 33 33 34 35 35 35 36 36 36 36 37 36 36 37 36 35 36 38 37 34 37 44 42 38 38 36 34 32 30 29 31 33 34 33
9 3 3 1 3 3 5 7 5 2 5 7 2 2 4 6 6 9 11 11 9 3 4 8 9 4 7 12 11 9 10 10 8 6 5 4 6 8 10 12 14 16 18 20 25 31 33 33 34 34 35 35 35 36 36 37 37 38 38 38 38 38 38 38 37 37 38 37 34 34 36 37 40 43 43 42 41 41 40 36 32 30 31 33 34 34
3 2 2 2 3 4 6 8 3 1 6 6 2 4 4 5 7 9 11 9 6 7 6 6 7 6 4 8 12 13 11 11 8 6 5 4 6 8 11 12 15 19 21 22 26 32 33 32 34 34 35 36 36 37 37 38 38 39 40 41 41 43 43 42 41 39 38 38 37 35 36 38 40 39 41 46 45 42 42 39 35 31 31 32 32 33
1 0 1 2 3 5 7 6 1 2 5 3 4 5 6 6 8 9 9 8 7 10 10 7 9 8 8 7 11 16 13 11 8 4 5 5 6 10 13 15 18 22 23 23 28 33 34 34 34 34 35 35 35 36 36 38 40 40 42 45 45 47 48 47 46 42 39 39 38 38 37 38 39 38 39 46 47 43 42 41 39 33 31 33 32 33
3 2 1 2 3 5 4 2 3 2 4 2 6 5 6 6 8 9 8 8 8 10 9 6 6 7 7 5 10 14 12 10 6 2 3 5 9 13 15 18 21 23 23 23 27 33 34 34 34 34 35 35 35 35 35 39 44 45 45 47 48 49 48 47 46 43 39 39 39 39 38 37 38 39 39 43 46 45 42 40 40 36 32 33 36 38
2 3 2 2 3 4 3 4 4 1 2 4 6 6 7 7 8 8 7 8 9 8 9 9 8 8 7 4 8 10 10 8 3 2 3 7 11 14 16 19 23 26 24 24 28 32 33 34 34 34 35 36 36 36 37 40 45 47 47 48 50 48 47 47 47 44 41 41 40 40 39 38 38 38 40 42 44 45 43 39 38 37 35 33 38 42
1 1 1 2 3 3 2 3 2 1 3 6 6 7 7 7 8 8 7 7 7 7 9 9 9 8 6 4 5 4 4 4 1 3 3 7 12 15 17 20 25 27 25 26 29 31 34 35 34 33 35 37 39 39 40 43 46 48 47 48 50 49 47 47 47 46 44 42 41 40 40 40 39 38 39 41 42 44 43 38 34 34 35 35 36 41
3 3 3 1 1 2 1 3 2 2 4 5 5 6 7 6 6 6 5 3 5 7 4 2 4 5 7 3 2 3 5 5 1 3 4 7 12 15 18 23 25 25 25 28 29 31 34 35 34 34 36 40 43 44 45 46 47 46 47 49 51 51 49 46 45 45 45 44 42 40 40 41 40 38 38 39 41 43 43 38 33 31 33 35 34 37
4 4 3 3 1 3 3 3 3 4 5 5 5 4 5 6 6 5 4 3 7 6 2 7 4 3 9 8 4 7 7 4 3 3 4 8 13 17 21 25 26 25 27 28 30 32 34 35 36 35 38 44 47 47 47 47 47 47 49 53 53 52 51 48 46 46 44 43 42 41 40 40 40 38 37 37 39 43 42 38 33 30 30 33 33 34
3 2 5 4 2 5 5 4 3 3 3 4 3 2 3 5 6 7 5 5 7 3 3 4 5 4 8 9 6 9 7 4 4 4 7 11 15 18 21 25 26 26 27 28 31 34 34 35 36 37 42 47 47 46 45 47 50 48 48 52 54 53 52 48 45 44 42 41 40 40 40 40 40 38 36 35 36 39 41 38 33 31 31 31 33 32
6 3 4 5 2 5 6 3 2 3 1 1 1 1 4 4 5 6 5 6 7 6 4 2 3 4 6 2 8 11 7 5 4 4 8 12 15 17 20 23 25 26 28 30 32 34 34 35 37 39 44 46 45 46 48 52 53 47 49 58 55 51 52 47 44 45 44 42 42 40 38 39 39 38 36 35 35 36 40 40 34 32 32 32 32 33
7 6 3 2 1 3 4 1 1 2 2 1 2 1 3 3 5 6 7 7 6 9 8 3 3 5 2 5 11 10 7 6 3 4 8 14 16 19 21 22 25 27 29 31 32 34 35 37 39 41 43 44 46 48 50 54 52 43 51 61 54 48 52 51 48 51 52 51 51 48 45 43 42 40 37 35 35 35 37 39 36 33 33 33 34 33
5 4 5 4 1 2 1 1 1 3 1 2 2 2 1 3 2 5 8 5 2 7 6 5 5 6 3 5 9 9 5 2 2 6 10 15 17 19 20 22 25 28 30 31 32 34 36 39 41 43 44 46 48 51 54 57 52 44 48 54 50 48 51 49 45 48 52 54 54 55 55 49 41 38 37 34 36 36 36 39 39 35 34 34 34 35
3 4 5 6 3 2 1 1 3 3 2 1 2 1 3 3 1 2 4 3 3 8 6 5 7 8 5 4 7 9 4 3 6 9 12 15 17 19 20 23 26 29 30 31 32 34 37 40 43 44 44 46 49 54 56 54 49 47 48 48 49 50 48 45 43 41 43 46 47 48 49 46 40 37 35 34 36 37 37 40 41 37 35 34 34 35
1 4 3 3 1 3 3 2 4 3 1 0 1 1 1 1 2 3 3 3 5 8 7 5 6 7 8 4 5 7 4 7 8 10 12 14 17 19 22 25 29 31 32 33 33 37 41 42 43 44 45 49 52 55 54 51 50 51 49 46 46 47 46 45 43 41 40 41 43 41 37 37 39 39 37 35 35 37 37 39 41 39 36 35 35 35
1 3 2 1 2 3 3 4 6 5 4 3 0 1 1 1 3 4 2 1 5 7 7 7 5 4 5 2 2 3 5 6 8 10 10 13 17 21 24 27 30 32 34 35 37 41 44 42 42 44 46 50 52 50 50 52 52 50 49 47 45 44 44 43 40 40 40 39 41 41 37 36 40 41 40 38 36 38 38 38 40 41 38 36 35 35
2 4 3 1 1 2 4 4 5 4 5 5 5 5 3 2 2 4 3 2 3 6 6 7 9 5 3 3 1 4 4 5 8 10 10 14 19 21 25 29 32 33 34 37 40 43 43 42 42 45 47 49 49 49 51 52 51 50 48 46 46 43 42 40 37 37 38 38 39 41 40 39 40 39 39 38 36 37 38 38 39 39 37 36 36 36
2 3 4 2 3 5 3 1 1 3 1 4 6 6 5 5 4 4 5 3 2 5 6 6 11 8 3 1 4 4 2 5 9 12 12 16 20 22 26 30 32 34 35 39 42 40 40 40 42 45 46 45 48 51 52 50 49 51 47 44 46 44 40 38 36 37 39 40 40 40 39 37 35 34 33 35 36 34 33 36 39 37 36 36 37 36
1 0 4 6 5 4 1 2 2 3 3 3 5 5 5 6 6 5 7 3 2 6 7 6 11 8 3 2 4 2 2 7 11 13 15 17 21 23 27 31 33 34 36 40 40 37 38 40 42 44 43 44 48 50 50 49 47 48 47 44 44 44 41 38 37 37 39 40 40 40 39 37 34 33 34 37 38 35 30 30 34 36 35 36 36 36
2 1 3 6 4 2 3 1 0 0 2 4 5 6 6 6 6 6 5 2 2 7 6 5 11 7 3 3 5 5 5 10 12 14 16 18 21 24 29 33 34 35 37 38 37 37 40 40 41 42 42 44 48 49 52 52 47 47 47 43 42 43 42 38 36 36 38 40 41 39 39 38 35 35 36 35 39 40 34 27 27 30 33 35 37 38
4 3 3 3 5 3 3 3 3 4 5 5 6 7 7 6 5 2 2 2 3 7 8 8 12 8 0 4 8 7 8 12 14 16 16 18 22 25 29 33 34 36 38 36 36 39 40 40 42 43 42 43 44 47 53 53 48 46 45 42 41 41 41 39 36 36 37 38 40 39 38 38 36 36 39 37 36 41 40 34 28 26 28 33 37 39
4 3 5 5 6 7 5 3 3 4 5 5 6 9 10 9 9 4 2 5 7 7 10 10 11 10 6 5 9 11 12 13 15 16 16 19 22 26 30 33 33 35 36 35 37 39 38 39 43 44 43 41 41 45 51 52 48 45 44 42 41 40 40 40 38 37 38 37 38 39 39 38 36 36 39 40 39 39 41 40 36 30 26 28 34 37
2 3 6 9 9 9 6 2 2 4 5 5 7 11 12 10 11 7 3 7 8 7 11 12 12 15 14 12 14 14 13 13 13 14 17 20 23 27 31 32 32 33 33 34 38 38 37 40 43 44 44 42 43 48 51 52 49 45 44 43 40 39 39 39 38 38 38 38 38 39 39 38 37 36 37 38 39 40 40 39 40 38 31 26 29 33
2 4 8 12 13 11 9 4 3 5 7 8 9 12 14 13 12 10 10 9 6 6 12 12 12 16 15 14 15 14 13 13 11 13 18 22 24 29 32 33 33 33 33 35 38 37 36 40 43 45 45 44 47 51 52 50 47 44 43 42 40 39 38 37 38 38 38 39 40 39 39 38 37 36 36 36 36 38 40 40 39 41 38 31 27 29
3 6 7 9 13 13 11 8 6 6 8 10 11 13 15 15 14 14 17 14 10 11 14 12 13 17 16 14 15 14 14 12 11 15 20 22 26 31 33 33 33 32 32 35 38 36 36 40 43 43 44 45 50 53 51 50 47 44 43 41 38 38 37 35 36 36 37 39 40 40 40 39 38 37 37 36 37 37 38 40 41 42 42 38 34 31
2 3 4 7 11 12 11 10 8 9 11 12 14 16 16 16 16 17 19 19 19 20 19 18 20 20 16 16 17 15 13 11 12 16 20 23 28 30 31 32 31 31 33 35 37 36 36 40 45 46 48 53 57 55 52 51 49 46 44 41 37 35 36 35 34 35 36 37 38 40 41 41 41 40 38 36 37 38 38 40 43 44 43 43 42 40
3 1 2 2 8 9 8 9 9 11 13 16 18 17 16 17 19 19 19 18 19 21 21 22 22 19 16 16 16 13 12 11 12 16 19 23 27 30 31 31 30 31 33 35 35 36 37 41 46 48 50 53 54 51 49 51 49 45 41 39 38 36 36 37 37 37 38 38 38 40 42 43 42 41 40 38 38 40 40 40 41 43 44 45 45 45
3 2 2 1 5 6 4 7 10 10 13 20 22 18 17 18 18 17 16 16 17 19 20 19 16 13 12 12 12 11 12 11 12 16 18 22 26 29 29 28 29 31 33 35 35 35 37 41 44 45 45 47 49 49 49 50 46 40 36 37 39 40 41 42 42 41 42 41 40 41 41 42 41 41 41 40 39 41 41 41 41 42 44 46 45 45
4 3 2 2 3 3 1 2 3 6 10 14 14 15 20 21 20 17 15 15 18 17 14 13 11 10 10 10 10 11 10 10 12 14 17 21 25 27 26 25 28 31 32 34 35 35 36 39 43 43 41 43 47 48 47 45 42 40 39 39 42 45 46 46 44 42 43 43 42 42 41 40 41 42 42 40 40 41 41 42 42 41 42 44 44 43
5 5 3 4 2 1 3 4 2 7 10 7 2 13 21 22 21 19 16 16 17 15 13 12 11 12 12 11 11 11 10 11 13 14 19 24 24 22 22 25 28 31 32 34 35 35 36 38 43 45 43 45 50 51 49 43 37 38 41 44 47 48 47 46 44 43 44 44 43 42 41 40 40 41 41 41 40 40 41 42 42 40 39 40 41 40
7 6 4 4 3 1 3 3 3 8 7 3 3 7 14 14 14 15 14 14 15 14 16 15 14 14 14 13 12 12 14 15 13 17 25 25 19 16 19 25 29 30 33 35 35 36 38 40 43 46 47 50 55 56 52 43 36 41 49 53 52 50 46 45 44 43 43 44 44 42 40 40 40 40 42 44 41 38 39 41 42 40 37 37 37 36
7 6 4 3 3 1 2 5 6 5 4 3 3 3 4 5 7 9 10 12 14 15 15 14 15 15 12 12 13 13 16 17 15 20 24 17 10 13 19 24 28 29 32 35 35 36 39 40 42 45 49 54 57 57 54 48 45 50 55 54 51 49 47 45 43 43 43 42 43 43 41 41 42 42 43 44 42 37 37 39 40 39 37 35 34 33
8 6 4 3 4 3 4 8 7 9 12 10 8 8 9 9 8 6 8 8 9 11 13 12 14 13 9 10 12 13 16 15 13 14 12 7 9 18 23 24 25 26 30 34 35 35 37 40 44 48 52 55 57 56 55 55 56 57 56 54 52 49 47 45 44 42 43 43 44 45 45 44 43 45 45 43 41 38 36 37 38 38 36 34 33 30
7 7 5 4 4 3 4 6 7 10 12 8 6 9 10 8 5 1 5 6 6 12 15 13 11 9 7 9 10 11 12 11 8 8 8 11 17 24 28 27 25 25 29 34 35 38 42 44 48 52 53 55 56 55 55 56 59 60 59 55 51 47 45 44 44 42 43 46 48 48 47 46 44 45 45 42 40 39 36 35 36 36 33 33 31 29
5 6 5 5 6 5 5 6 7 8 6 2 3 5 9 11 10 5 4 7 6 13 16 11 8 8 7 8 8 6 6 7 7 9 14 20 24 26 29 31 31 33 37 37 37 40 45 48 50 52 53 54 55 56 55 56 60 62 58 53 49 48 46 45 46 46 46 48 50 49 50 50 49 48 46 42 39 36 33 33 35 34 31 31 30 27
6 5 6 8 9 9 8 8 7 7 4 1 4 9 13 13 11 4 5 5 5 11 14 12 8 9 8 7 7 4 4 7 9 15 24 30 31 31 31 33 36 38 41 42 42 44 46 48 50 52 53 54 55 55 56 58 60 62 60 54 51 49 46 46 49 51 51 51 51 50 49 49 48 46 43 39 35 32 30 30 32 32 30 29 27 25
6 6 8 9 10 11 11 9 8 7 5 5 7 13 16 11 6 5 6 2 9 12 13 13 10 9 9 9 7 6 9 12 15 22 30 32 32 34 35 36 37 38 39 40 42 44 46 48 49 50 52 52 53 55 56 57 59 63 62 54 50 50 50 51 53 54 54 53 52 49 47 45 43 40 36 32 29 27 24 24 27 29 28 26 25 23
7 6 8 9 9 9 10 9 9 8 7 11 14 18 18 9 4 7 3 8 13 13 11 13 12 9 9 10 9 9 14 16 19 24 27 27 29 33 36 37 38 39 40 40 40 41 44 46 48 50 51 51 51 53 54 55 57 62 62 54 51 54 56 56 56 56 55 53 51 47 43 40 38 35 31 26 23 20 18 20 23 25 23 23 23 21
8 7 7 8 8 7 8 9 8 6 7 18 17 12 11 7 8 6 5 10 13 12 9 10 10 8 9 9 9 12 17 19 21 23 24 25 27 32 34 36 38 39 40 41 42 43 44 46 48 50 50 50 50 52 53 55 57 60 61 57 54 55 56 56 56 55 52 50 47 43 39 36 33 30 27 24 19 15 16 19 21 20 20 21 21 19
8 8 5 6 8 7 7 10 6 1 8 22 19 9 12 20 17 10 9 10 8 8 8 7 7 8 10 10 12 16 19 21 21 22 23 25 28 31 33 34 36 38 39 41 42 42 43 44 47 49 50 49 49 52 53 53 55 58 61 60 56 55 56 57 55 52 50 48 46 42 37 34 30 27 25 23 18 14 15 19 20 20 21 20 19 19
9 8 3 4 7 7 6 6 3 2 9 23 22 12 16 25 23 16 14 11 7 8 10 9 8 10 11 13 15 18 20 20 20 21 23 26 28 30 32 33 35 36 38 40 41 42 42 43 45 48 50 48 47 50 52 53 55 58 62 61 57 56 57 56 54 51 48 47 45 41 38 34 30 27 24 22 18 14 15 18 20 22 22 20 19 19
6 6 1 1 5 8 10 9 4 4 8 18 21 16 15 19 21 20 18 13 9 10 13 12 11 12 13 14 16 18 19 19 20 21 23 26 28 29 31 33 35 36 37 39 40 41 42 43 44 46 48 48 47 48 51 53 55 57 59 60 59 56 55 55 55 51 47 45 44 42 39 36 33 29 24 21 19 17 16 18 20 21 22 21 20 19
6 8 5 5 6 6 7 7 9 12 13 15 18 20 20 20 20 21 18 15 12 14 15 13 12 13 14 16 17 18 19 19 20 22 24 26 27 29 31 33 35 36 37 38 39 40 42 43 45 45 47 48 47 48 50 53 54 54 56 59 58 55 53 54 53 50 47 46 45 42 39 36 34 31 26 22 20 20 20 19 19 21 22 21 20 20
9 11 8 8 9 9 6 4 6 12 15 17 19 21 23 25 25 22 19 18 16 16 16 15 14 14 16 17 17 17 19 18 19 21 24 25 26 28 30 33 34 35 36 36 38 39 40 41 43 44 45 46 46 47 49 51 53 53 55 57 56 54 53 53 51 49 47 46 44 43 40 37 34 32 28 23 19 19 20 20 20 20 22 22 21 21
11 12 8 6 9 10 9 10 10 8 7 13 20 23 24 27 28 26 22 20 18 18 17 16 15 15 17 17 16 17 18 18 18 21 23 23 24 27 29 31 33 34 35 36 38 38 38 39 41 43 44 44 45 46 47 49 51 53 55 56 55 53 52 52 50 48 47 45 45 44 41 37 34 31 29 26 21 17 15 16 18 19 19 19 18 20
10 8 6 6 7 8 7 11 13 8 5 10 18 23 26 27 26 25 23 21 20 20 18 16 16 17 17 17 16 17 17 17 18 20 22 22 23 25 27 30 32 33 34 36 37 37 36 37 39 41 42 43 43 44 46 48 49 51 54 54 54 52 51 50 49 48 46 45 45 44 42 39 36 32 28 26 24 21 16 12 12 14 16 15 13 15
11 10 10 8 7 8 11 16 17 11 7 9 13 16 20 22 22 22 21 20 20 19 18 17 17 18 18 17 17 16 15 16 18 19 20 20 21 23 25 27 29 32 33 34 36 37 37 37 38 40 42 42 43 43 44 45 48 50 52 53 52 50 48 47 47 47 45 45 45 43 41 39 36 33 30 27 24 22 21 17 13 9 10 10 9 9
Wind_Direction
324 304 271 303 340 339 329 302 297 295 282 277 276 272 269 279 276 276 288 124 86 314 276 295 298 297 304 175 144 138 130 119 114 111 98 85 58 35 22 9 3 357 354 351 351 352 350 349 347 344 342 340 338 338 336 334 331 330 329 327 326 326 327 326 325 326 327 329 326 324 322 315 309 307 305 297 290 290 294 297 295 284 269 255 249 247
288 287 291 38 353 328 313 287 294 285 282 280 274 282 280 282 294 308 296 141 75 324 289 300 302 301 301 160 147 146 135 122 116 110 94 74 50 32 16 3 360 0 356 351 350 350 351 350 347 343 340 338 336 335 334 332 330 329 327 325 323 322 322 321 320 317 319 322 323 322 321 318 313 309 309 306 297 290 290 294 297 296 284 269 259 252
293 285 80 52 3 308 263 255 286 281 281 281 276 283 282 304 328 315 160 127 332 305 299 308 305 300 288 150 150 150 132 117 112 103 90 71 43 25 13 6 3 2 356 349 349 350 350 347 343 341 338 336 334 332 330 329 329 328 327 325 322 320 316 314 315 312 311 313 317 320 317 315 315 312 309 309 304 294 289 290 292 294 292 287 277 261
295 310 73 49 66 247 257 249 276 280 276 274 277 281 284 326 345 294 171 341 315 296 311 314 296 293 224 145 149 143 131 121 120 112 101 83 45 29 17 12 7 360 352 347 348 348 346 342 339 338 335 334 332 330 330 329 328 326 325 324 321 319 316 312 312 310 309 307 310 315 314 310 313 315 310 306 305 300 293 288 286 288 290 294 292 272
277 314 57 97 184 257 281 276 277 284 287 285 285 280 294 330 328 296 306 317 305 279 31 340 301 282 165 163 164 144 144 138 132 125 110 91 49 35 21 13 5 357 351 348 350 347 343 338 335 334 333 333 331 330 330 328 327 324 322 322 319 318 315 312 309 308 308 306 305 309 311 309 312 317 314 309 309 309 306 299 291 286 287 292 296 286
276 338 53 221 229 268 284 286 290 310 294 293 323 31 342 334 314 305 313 322 310 274 54 12 318 286 167 180 174 154 162 155 146 143 118 84 49 33 16 9 359 353 352 350 350 346 340 335 331 331 332 332 331 330 329 328 327 325 322 320 318 317 314 311 309 307 305 304 303 304 304 306 309 313 315 315 313 312 313 309 301 291 284 287 292 294
281 49 51 280 279 284 282 281 282 42 292 292 37 32 353 319 305 314 317 321 309 289 323 343 294 276 251 215 176 162 174 165 156 146 114 72 44 28 10 3 356 354 353 348 346 341 337 333 329 329 330 330 330 329 328 327 326 324 323 320 316 315 313 309 307 305 303 301 300 300 300 300 301 303 309 315 314 312 312 309 304 296 286 285 285 289
124 81 240 283 295 281 282 284 356 33 289 301 32 355 337 321 307 313 310 299 292 297 299 274 252 258 279 259 174 163 172 168 166 147 99 61 27 15 5 1 359 357 351 344 342 337 333 331 327 326 327 328 327 326 326 325 325 325 323 319 314 312 311 307 305 302 300 299 298 297 296 296 296 294 300 311 313 311 312 309 304 299 287 282 280 279
57 351 284 291 287 273 290 341 45 0 262 334 18 338 309 303 290 291 291 285 291 298 288 253 235 247 271 251 162 165 182 181 171 131 74 36 16 6 1 359 358 354 348 341 336 332 330 328 325 324 325 326 325 325 323 322 324 324 322 319 315 311 309 306 304 300 297 296 296 295 294 292 292 291 292 302 309 308 309 310 307 301 291 281 278 274
27 28 346 309 278 278 344 49 46 336 255 336 342 296 272 261 262 271 275 286 293 282 271 255 230 240 271 241 175 183 199 196 177 59 40 17 10 4 358 357 355 350 343 336 330 328 328 325 325 324 324 325 325 324 321 320 322 322 319 318 317 312 308 306 304 301 297 295 294 293 291 289 289 288 289 294 302 306 306 309 310 305 298 285 280 277
267 66 264 261 278 304 10 57 49 3 310 318 302 283 280 262 263 268 263 286 287 266 268 252 218 234 267 248 216 212 165 148 0 346 6 5 2 360 357 356 352 345 336 329 325 326 327 325 325 325 325 326 324 321 321 320 321 320 317 316 315 312 308 304 303 300 296 294 292 290 289 288 287 285 286 288 296 303 304 306 313 311 304 294 282 279
226 228 215 167 281 305 240 221 201 227 274 290 276 288 302 288 284 273 249 247 252 263 283 138 151 236 247 235 174 130 109 107 62 338 353 358 355 357 357 353 348 339 330 325 322 323 326 326 325 325 325 325 323 322 321 320 320 320 318 316 313 312 310 306 302 300 296 292 289 288 288 287 286 283 281 281 287 298 301 301 310 315 309 304 290 279
225 208 161 106 185 210 221 227 204 209 232 250 258 287 307 305 302 275 246 233 249 264 120 107 82 264 248 258 217 151 132 119 94 35 8 0 356 356 355 349 341 333 328 324 322 323 324 325 324 324 326 327 325 323 323 322 320 318 318 318 312 309 310 307 301 299 296 292 288 288 288 287 285 282 277 274 278 290 297 297 302 312 312 311 304 285
267 157 147 154 173 185 211 237 237 218 204 224 253 296 293 300 301 283 278 274 267 260 117 69 9 301 269 269 214 159 130 107 85 54 20 4 358 354 350 343 334 330 327 324 323 323 322 321 321 321 326 328 326 324 323 321 319 314 313 317 314 308 310 309 303 300 297 294 291 289 289 289 285 282 275 269 272 282 292 294 295 303 309 311 313 301
268 273 172 177 150 161 198 235 310 328 302 201 30 344 262 260 268 275 297 297 292 296 287 323 339 281 299 12 127 129 123 111 76 38 13 0 354 350 343 336 332 328 326 324 323 322 321 320 320 320 323 324 323 323 321 318 318 312 306 312 314 308 308 308 302 300 297 294 296 294 293 294 288 282 277 268 266 276 286 290 291 295 303 306 311 311
247 254 143 127 60 161 194 189 19 304 263 153 89 240 246 258 257 267 292 297 306 304 283 233 223 257 291 112 128 131 139 130 74 14 359 353 348 344 338 332 330 327 325 325 323 321 321 320 321 322 323 323 322 321 320 319 319 312 307 313 314 308 306 305 299 295 290 288 292 292 290 296 292 282 278 271 264 270 281 286 289 291 297 302 306 310
255 247 122 129 202 154 157 114 226 278 271 141 168 212 93 45 319 272 287 304 316 288 270 190 231 262 237 175 156 151 163 160 20 358 352 347 344 338 334 331 327 325 324 323 322 321 321 322 322 323 323 324 324 323 322 320 319 315 315 317 315 309 308 309 308 300 292 289 290 289 286 290 293 285 279 274 267 268 275 282 287 290 293 297 302 306
283 267 166 164 188 143 94 278 241 261 286 199 205 183 91 73 59 242 273 305 273 268 262 207 240 262 263 242 171 175 212 325 342 349 346 340 337 333 332 330 326 325 324 322 322 321 322 323 325 326 326 325 323 323 323 322 320 318 318 317 314 311 310 310 311 308 302 298 294 293 291 288 288 290 287 281 275 271 272 277 284 288 291 293 298 302
344 275 210 156 154 130 132 235 219 206 203 212 336 15 99 230 227 186 207 276 270 271 279 258 249 252 254 248 170 200 274 335 333 339 339 332 333 333 332 329 327 328 326 324 326 325 324 325 327 329 329 327 324 321 323 323 321 320 319 317 313 309 309 308 306 305 305 302 297 294 295 290 286 289 295 292 285 278 271 273 280 285 288 291 293 298
158 254 246 52 29 109 161 220 215 198 164 125 16 262 191 252 246 234 225 261 263 274 289 282 274 258 246 223 154 247 309 337 329 334 332 327 332 332 331 329 328 328 326 325 326 326 327 326 327 329 327 327 327 323 323 323 322 323 322 319 314 308 308 307 303 303 303 303 302 295 289 286 282 283 293 297 293 286 278 273 276 280 283 287 290 294
174 228 236 39 42 168 196 210 217 221 185 176 206 214 199 176 217 258 260 186 233 266 277 284 283 268 155 120 256 293 326 339 330 330 326 327 330 329 330 329 327 326 325 326 325 323 326 326 326 326 323 323 326 326 326 325 322 323 321 319 317 312 310 309 305 305 304 302 305 303 297 290 283 284 291 294 292 291 286 277 275 277 280 283 285 287
177 220 233 223 208 212 216 102 0 314 254 205 209 204 210 206 195 240 245 189 165 245 246 263 277 271 157 136 299 307 338 336 330 328 327 327 326 326 328 327 326 325 325 325 324 321 324 325 325 325 324 323 324 325 326 325 323 324 324 321 319 315 312 310 307 305 305 303 302 304 305 300 295 294 289 282 284 293 293 283 276 277 279 281 282 282
73 301 242 244 232 204 162 49 16 328 305 269 243 221 228 218 190 212 238 219 184 237 236 246 268 273 138 162 270 251 283 322 328 329 329 326 324 324 325 324 324 324 321 320 322 323 324 324 323 324 324 326 327 327 328 327 324 326 327 322 318 316 312 309 307 305 304 304 302 301 303 304 303 300 288 275 277 289 297 290 281 279 279 280 281 281
93 108 222 252 260 142 129 146 57 232 231 257 246 222 226 221 200 214 241 287 281 241 231 241 256 264 108 153 210 216 284 316 324 331 332 324 322 323 322 322 322 322 320 318 320 324 323 323 324 323 323 326 329 330 331 329 324 322 324 321 317 315 313 309 307 306 304 303 302 301 301 302 302 301 297 284 276 280 288 291 288 285 283 278 278 280
165 181 172 221 258 232 190 207 207 190 196 227 229 204 200 203 197 224 260 266 264 237 223 238 254 264 247 168 200 230 288 315 323 331 331 323 323 323 321 322 321 320 320 318 320 323 323 322 324 323 324 325 326 329 331 330 326 321 320 320 318 314 313 311 307 306 305 303 302 301 299 300 300 301 303 300 287 279 278 279 281 283 284 280 277 278
186 220 189 195 231 231 227 236 216 191 189 213 218 199 196 197 190 182 204 222 235 238 228 233 252 267 270 232 237 263 293 313 320 325 324 320 321 322 320 321 321 319 318 317 320 322 321 321 323 323 323 324 325 328 331 330 326 321 317 317 316 314 312 311 308 306 305 303 301 300 299 298 299 299 302 305 300 290 280 274 272 272 275 278 277 278
213 260 227 228 237 240 260 301 130 162 192 209 210 202 202 202 196 190 209 223 231 256 250 241 251 267 273 269 269 281 297 306 314 319 318 319 320 320 320 320 319 318 317 317 319 320 319 319 322 324 325 327 328 329 330 329 325 321 317 315 313 313 312 309 308 306 305 303 300 298 297 296 297 297 299 301 301 299 291 279 271 267 267 269 273 278
231 248 233 239 249 258 283 299 166 180 220 230 226 218 214 208 198 201 220 222 213 247 256 249 250 263 271 273 274 288 302 305 315 317 314 319 321 319 319 319 318 317 316 319 320 319 317 318 321 324 326 329 330 329 329 328 324 320 317 313 311 311 310 308 308 306 304 304 301 298 296 295 295 295 295 296 295 295 295 289 277 268 265 264 265 273
249 253 229 236 253 259 267 268 237 226 247 245 238 236 229 218 206 210 223 224 212 230 253 265 267 268 273 275 280 295 305 305 313 313 312 318 320 318 318 318 317 315 315 320 321 319 317 316 318 320 323 325 327 327 328 328 325 321 317 313 310 310 309 307 306 306 305 304 301 300 298 296 295 294 292 292 291 289 291 291 287 275 266 263 261 261
236 261 226 236 261 262 252 257 263 263 267 262 250 245 238 229 224 224 227 225 225 237 252 265 270 270 271 276 283 292 299 303 309 309 312 316 317 317 317 315 314 315 316 318 319 318 316 316 318 321 323 325 327 328 330 329 325 320 317 314 311 310 311 309 305 304 304 302 300 300 299 297 296 295 292 290 288 286 285 287 289 283 271 266 262 257
217 216 123 224 267 265 244 246 260 265 269 269 260 250 240 237 238 237 233 226 229 242 251 257 264 267 266 272 280 288 297 306 308 309 313 315 315 315 314 313 314 315 316 316 316 317 316 316 319 322 322 325 326 326 324 324 323 319 315 314 312 310 310 309 305 303 301 300 299 300 300 298 296 296 294 290 286 284 284 284 286 286 279 272 265 257
216 217 89 102 265 271 248 239 253 270 278 272 263 249 236 235 236 237 233 223 224 235 245 251 255 257 263 273 283 293 300 303 306 311 313 312 313 313 311 311 314 315 316 316 315 315 316 316 318 319 320 321 323 323 321 320 321 318 314 314 313 312 311 309 305 303 300 298 298 298 299 298 297 296 294 291 287 284 284 285 284 285 283 278 269 260
186 196 150 158 249 293 31 187 270 302 290 274 256 229 225 229 232 237 236 227 223 227 236 245 246 252 270 286 290 293 294 298 308 311 308 306 307 309 308 308 312 315 315 314 313 314 314 315 316 317 318 319 321 323 321 316 316 317 315 314 314 313 313 310 306 303 301 300 299 298 297 297 296 295 294 292 290 286 283 284 283 283 281 279 276 266
182 178 169 180 209 321 104 100 356 280 263 272 207 198 213 222 228 235 238 230 224 223 231 243 252 262 275 284 288 291 294 302 310 305 301 303 302 301 306 309 312 315 315 314 314 315 314 314 316 317 319 321 323 325 322 314 312 315 314 314 314 312 310 309 307 305 302 301 301 299 298 297 295 294 293 292 292 288 283 281 281 281 278 278 280 271
177 175 172 192 211 219 114 113 272 259 254 325 28 195 207 216 225 237 246 239 229 229 237 245 257 266 273 282 287 292 298 305 308 302 303 304 300 300 308 311 313 315 316 315 315 316 317 316 317 319 322 325 327 329 326 317 312 317 319 319 319 315 309 306 305 305 304 302 301 300 299 297 295 293 293 293 291 286 282 280 278 278 277 275 276 271
170 176 173 186 199 208 176 194 223 267 301 301 278 210 187 203 215 230 251 244 229 231 239 246 257 265 271 282 287 294 304 309 305 301 304 306 307 315 313 311 313 314 314 315 314 314 317 317 317 319 323 327 330 332 331 326 324 324 322 320 318 315 312 308 304 304 305 304 303 304 303 301 298 296 296 297 293 283 277 278 276 276 276 273 270 267
172 175 173 192 204 202 216 221 241 291 293 267 233 212 208 208 206 223 258 250 219 226 242 247 254 261 264 275 287 300 309 311 300 294 307 324 325 322 318 313 312 310 310 313 313 313 316 320 322 326 329 332 333 334 334 335 334 331 325 322 321 318 317 313 308 305 305 305 307 310 310 308 304 303 304 303 297 286 274 273 274 274 273 270 267 266
188 192 177 199 225 194 203 241 257 270 270 257 218 205 199 187 164 164 289 275 219 225 241 242 239 248 259 273 287 304 310 307 295 294 321 335 326 323 322 319 314 310 313 317 318 320 326 330 332 334 336 336 336 337 339 339 337 335 332 328 324 319 316 314 312 310 306 307 311 314 315 313 309 308 308 304 298 290 278 270 271 273 271 268 266 265
193 207 191 214 238 211 201 233 241 242 255 252 160 145 127 119 106 86 304 280 223 213 219 212 210 232 255 268 274 293 305 293 292 309 321 324 324 323 324 324 322 322 326 328 326 326 331 335 337 338 340 340 339 340 342 342 341 340 336 329 325 322 317 314 316 317 315 316 319 319 319 318 314 312 310 305 300 295 282 270 270 273 270 265 263 263
181 193 200 217 229 221 218 234 243 249 259 200 131 120 116 115 111 113 274 278 143 163 178 177 198 233 243 251 250 242 260 274 291 309 314 318 323 325 326 327 326 327 332 335 333 333 335 338 339 340 342 343 342 342 344 347 345 342 337 332 329 327 320 315 318 323 325 326 324 320 320 319 316 314 312 307 303 296 281 270 270 271 265 260 264 267
187 194 206 216 223 222 223 236 255 261 238 189 145 132 126 116 123 200 245 194 138 154 171 182 208 228 222 222 228 235 259 275 288 301 311 318 323 325 327 329 328 330 334 334 333 334 337 338 339 340 342 344 343 344 347 348 345 342 340 336 329 327 327 326 328 333 334 333 330 328 327 327 324 321 318 311 305 296 282 272 272 270 265 266 273 270
181 194 213 216 217 220 224 237 264 274 226 185 163 148 139 133 209 226 190 136 159 174 181 192 209 219 211 215 229 255 274 284 291 301 311 317 318 322 326 329 329 333 337 336 333 334 336 338 339 341 344 347 347 346 347 347 346 344 342 337 331 332 335 335 337 339 338 336 336 336 335 334 333 331 328 321 312 301 291 281 275 272 272 279 281 270
171 177 207 210 200 206 222 225 247 274 196 167 158 146 153 190 236 226 160 150 172 187 191 197 208 215 215 225 250 274 287 294 298 305 311 312 315 322 326 329 331 335 338 338 336 337 338 339 339 341 346 350 349 348 349 349 348 346 342 338 337 339 340 341 341 341 340 341 344 345 343 343 344 343 338 333 325 314 299 282 273 275 282 282 278 270
183 175 192 201 180 178 207 210 213 306 151 158 157 161 201 215 225 218 195 188 191 207 223 224 218 222 235 256 278 288 294 298 301 307 310 312 318 324 326 329 333 337 339 339 337 338 340 341 341 343 348 352 351 349 350 350 348 346 344 343 343 344 345 346 345 344 345 347 350 350 350 351 353 352 348 343 336 319 294 276 269 275 281 278 274 273
197 183 175 200 189 192 225 223 185 94 158 171 178 191 208 216 222 218 210 212 212 223 238 243 235 237 255 274 285 292 296 298 302 308 311 315 321 326 328 332 335 338 340 339 339 339 340 342 344 345 348 353 354 351 351 352 351 350 347 346 347 348 349 349 348 349 351 351 351 353 356 357 358 357 354 351 343 320 292 281 279 278 278 278 278 276
185 169 138 231 203 225 256 255 222 206 191 188 200 217 222 219 218 216 219 226 228 230 241 247 245 247 262 278 287 294 296 298 305 311 314 319 325 328 330 334 337 340 341 340 340 341 342 344 346 347 349 353 355 353 353 354 354 352 348 346 348 350 350 350 350 351 354 354 353 355 357 358 358 357 356 355 349 331 307 294 290 285 282 280 279 277
172 167 188 216 199 211 241 225 201 217 222 209 212 222 225 223 217 216 225 237 239 239 247 256 256 256 267 280 288 293 297 301 308 315 319 323 328 331 333 336 339 341 341 341 342 343 344 345 347 349 351 353 354 354 354 353 354 354 350 349 349 349 352 354 352 351 356 357 356 355 355 355 356 356 356 355 349 336 321 306 293 285 283 281 276 275
174 173 190 219 218 220 242 246 221 224 225 224 226 227 226 227 227 229 239 246 244 245 255 261 259 260 273 283 287 292 299 305 312 318 321 326 331 334 335 337 339 341 341 342 343 345 347 348 348 350 353 355 355 355 355 354 354 355 353 351 350 351 354 356 353 353 359 1 358 357 356 354 354 355 354 352 346 335 325 316 304 289 279 275 274 273
153 174 181 196 220 233 251 258 254 244 217 219 229 234 235 234 235 239 244 244 242 248 255 255 254 262 274 282 286 291 299 308 316 319 322 327 333 335 336 338 339 340 342 343 343 345 348 349 350 351 354 356 357 356 356 355 355 357 356 353 351 353 358 358 355 356 1 3 2 1 359 356 355 355 354 352 348 338 325 321 320 310 294 280 271 266
148 187 184 178 215 231 235 238 239 238 216 216 228 238 243 242 240 239 241 242 247 253 252 246 254 269 277 280 284 290 299 311 318 320 322 329 334 335 337 339 338 339 342 343 343 345 348 351 352 353 354 357 358 358 357 356 356 359 359 354 352 356 2 1 358 360 4 6 6 4 2 359 358 357 357 357 353 346 336 329 330 327 315 300 278 259
183 203 195 195 215 218 226 236 236 231 231 235 237 241 243 242 241 241 244 249 253 253 249 247 257 270 276 278 282 289 301 312 316 317 322 329 334 335 336 338 338 338 341 343 343 344 347 351 354 355 355 357 359 360 359 358 358 0 360 356 355 360 5 6 3 4 7 9 9 7 5 3 1 1 3 4 2 359 353 347 346 342 327 314 295 260